Date,TemperatureHighF,TemperatureAvgF,TemperatureLowF,DewpointHighF,DewpointAvgF,DewpointLowF,HumidityHigh,HumidityAvg,HumidityLow,PressureMaxIn,PressureMinIn,WindSpeedMaxMPH,WindSpeedAvgMPH,GustSpeedMaxMPH,PrecipitationSumIn
2013-5-30,37,34,32,35,34,32,99,97,92,0.00,40.00,10,8,20,0.07
2013-5-31,43,37,30,40,34,28,98,91,78,0.00,40.00,10,4,17,0.03
2013-6-1,52,42,36,45,37,31,98,84,66,0.00,40.00,10,5,17,0.00
2013-6-2,54,43,37,44,39,36,97,88,68,0.00,40.00,9,4,17,0.00
2013-6-3,58,46,37,47,40,35,97,80,57,0.00,40.00,6,4,13,0.00
2013-6-4,65,53,39,46,38,23,82,58,38,0.00,40.00,6,2,10,0.00
2013-6-5,63,54,47,51,46,40,98,75,56,0.00,40.00,7,4,14,0.00
2013-6-6,64,54,45,46,39,28,98,60,30,0.00,40.00,6,3,17,0.00
2013-6-7,56,49,43,50,38,14,98,69,31,0.00,40.00,13,7,25,0.02
2013-6-8,56,48,40,44,32,14,97,57,31,0.00,40.00,9,4,15,0.01
2013-6-9,51,43,35,41,35,24,98,75,58,0.00,40.00,9,4,22,0.00
2013-6-10,47,40,32,40,36,26,98,88,69,0.00,40.00,9,4,18,0.00
2013-6-11,44,36,33,38,34,32,98,90,72,0.00,40.00,12,7,23,0.00
2013-6-12,42,36,32,38,34,31,97,93,73,0.00,40.00,9,6,19,0.18
2013-6-13,48,39,33,41,36,31,97,88,74,0.00,40.00,9,4,17,0.02
2013-6-14,54,44,36,43,38,33,97,80,63,0.00,40.00,9,4,14,0.00
2013-6-15,61,51,40,41,36,30,80,57,36,0.00,40.00,10,6,17,0.00
2013-6-16,61,51,43,47,42,33,97,71,55,0.00,40.00,11,6,22,0.04
2013-6-17,57,45,37,45,40,36,98,83,57,0.00,40.00,19,10,34,0.22
2013-6-18,50,41,35,42,38,34,97,89,57,0.00,40.00,19,7,34,0.32
2013-6-19,48,40,35,41,38,34,98,91,74,0.00,40.00,12,3,18,0.15
2013-6-20,40,37,35,38,35,33,97,94,89,0.00,40.00,12,6,20,0.24
2013-6-22,59,51,41,51,46,38,96,83,69,0.00,40.00,8,3,14,0.00
2013-6-23,50,46,43,47,43,33,97,88,57,0.00,40.00,19,10,34,0.17
2013-6-24,48,44,40,44,41,37,95,91,83,0.00,40.00,18,10,34,0.03
2013-6-25,50,42,39,43,39,37,96,89,76,0.00,40.00,18,13,36,0.10
2013-6-26,46,42,39,43,40,37,93,89,86,0.00,40.00,22,13,44,0.33
2013-6-27,51,47,42,46,42,38,88,83,74,0.00,40.00,18,12,36,0.08
2013-6-28,62,55,46,53,44,31,84,68,46,0.00,40.00,20,14,35,0.01
2013-6-29,70,60,53,57,50,45,89,70,59,0.00,40.00,14,7,25,0.00
2013-6-30,78,66,55,53,46,37,89,50,33,0.00,40.00,9,6,23,0.00
2013-7-1,79,70,62,58,55,51,83,60,45,0.00,40.00,11,7,21,0.00
2013-7-2,69,63,53,55,44,32,79,51,30,0.00,40.00,11,7,21,0.00
2013-7-3,68,57,46,50,42,28,93,62,26,0.00,40.00,9,4,15,0.00
2013-7-4,62,54,42,50,42,30,86,66,50,0.00,40.00,7,4,15,0.00
2013-7-5,62,49,41,49,43,29,98,81,58,0.00,40.00,8,4,14,0.00
2013-7-6,65,49,40,48,39,29,94,71,48,0.00,40.00,11,5,20,0.00
2013-7-7,66,57,48,51,44,39,78,63,46,0.00,40.00,11,5,18,0.00
2013-7-8,67,52,47,49,42,-100,96,73,42,0.00,40.00,9,4,18,0.00
2013-7-9,72,58,50,53,45,37,79,64,45,0.00,40.00,8,3,14,0.00
2013-7-10,63,55,45,49,40,-100,91,62,36,0.00,40.00,13,7,19,0.00
2013-7-11,56,46,36,45,36,25,87,68,55,0.00,40.00,11,4,15,0.00
2013-7-12,52,44,38,46,38,25,97,80,55,0.00,40.00,6,3,13,0.00
2013-7-13,63,49,37,48,37,28,94,65,48,0.00,40.00,8,4,14,0.00
2013-7-14,67,54,43,45,36,29,91,55,29,0.00,40.00,9,4,17,0.00
2013-7-15,67,53,40,46,39,28,94,64,30,0.00,40.00,12,5,23,0.00
2013-7-16,68,63,61,43,41,37,49,44,38,0.00,40.00,11,6,23,0.00
2013-7-17,70,61,52,54,47,39,82,59,44,0.00,40.00,14,5,21,0.00
2013-7-18,72,60,50,55,48,44,81,67,50,0.00,40.00,6,2,12,0.00
2013-7-19,75,58,52,58,44,33,79,59,47,0.00,40.00,5,2,10,0.00
2013-7-20,73,62,52,52,35,16,65,38,23,0.00,40.00,5,3,16,0.00
2013-7-21,73,61,51,54,46,40,72,58,41,0.00,40.00,5,3,14,0.00
2013-7-22,75,60,51,50,35,24,55,40,31,0.00,40.00,8,4,15,0.00
2013-7-23,75,61,52,48,40,29,58,46,28,0.00,40.00,9,5,17,0.00
2013-7-24,75,61,51,45,37,29,53,42,25,0.00,40.00,7,3,15,0.00
2013-7-25,74,62,53,49,38,31,58,41,25,0.00,40.00,7,3,12,0.00
2013-7-26,71,62,52,43,31,20,38,32,25,0.00,40.00,6,4,18,0.00
2013-7-27,67,55,48,50,33,17,92,45,25,0.00,40.00,8,4,14,0.00
2013-7-28,64,54,45,51,43,37,85,68,54,0.00,40.00,9,5,18,0.00
2013-7-29,66,54,46,51,42,38,88,67,46,0.00,40.00,11,5,25,0.00
2013-7-30,71,56,48,52,42,36,83,60,43,0.00,40.00,8,4,16,0.00
2013-7-31,71,60,51,51,43,33,63,53,43,0.00,40.00,8,5,15,0.00
2013-8-1,68,57,47,52,46,40,94,67,51,0.00,40.00,9,6,18,0.00
2013-8-2,54,50,46,51,47,42,98,89,82,0.00,40.00,6,3,14,0.06
2013-8-3,66,54,45,57,50,44,98,87,69,0.00,40.00,6,2,10,0.02
2013-8-4,71,56,51,54,49,45,91,78,56,0.00,40.00,6,3,11,0.00
2013-8-5,74,61,54,52,44,39,77,55,40,0.00,40.00,5,3,11,0.00
2013-8-6,74,61,54,47,38,23,62,43,28,0.00,40.00,8,4,14,0.00
2013-8-7,75,63,54,48,40,25,61,45,30,0.00,40.00,10,5,18,0.00
2013-8-8,73,60,52,54,46,42,75,60,40,0.00,40.00,10,5,18,0.00
2013-8-9,75,63,53,52,47,40,74,57,44,0.00,40.00,7,4,13,0.00
2013-8-10,71,60,54,55,48,28,87,66,28,0.00,40.00,10,4,22,0.00
2013-8-11,63,56,48,52,50,47,97,82,64,0.00,40.00,7,3,16,0.01
2013-8-12,63,53,47,53,49,46,98,89,69,0.00,40.00,5,2,9,0.01
2013-8-13,69,54,44,52,41,-100,97,66,39,0.00,40.00,13,7,24,0.00
2013-8-14,60,54,49,50,40,22,98,63,27,0.00,40.00,20,14,40,0.10
2013-8-15,54,48,49,49,36,-100,94,81,66,0.00,40.00,15,11,30,0.07
2013-8-16,66,56,48,54,45,35,93,68,55,0.00,40.00,12,8,20,0.01
2013-8-17,63,53,47,52,46,-100,96,80,59,0.00,40.00,11,8,22,0.00
2013-8-18,60,53,46,50,46,40,96,77,62,0.00,40.00,11,8,21,0.00
2013-8-19,63,50,44,49,35,-100,94,71,55,0.00,40.00,8,4,19,0.00
2013-8-20,61,45,39,45,36,-100,96,74,51,0.00,40.00,7,4,15,0.00
2013-8-21,70,51,41,43,32,23,75,50,30,0.00,40.00,5,3,11,0.00
2013-8-22,75,63,57,44,35,19,58,35,21,0.00,40.00,5,3,11,0.00
2013-8-23,64,55,46,49,45,37,99,70,43,0.00,40.00,11,7,20,0.03
2013-8-24,56,46,42,48,43,-100,98,90,63,0.00,40.00,9,5,15,0.07
2013-8-25,59,47,40,49,42,35,98,84,46,0.00,40.00,9,4,21,0.04
2013-8-26,55,45,41,43,40,34,98,84,57,0.00,40.00,20,15,42,0.03
2013-8-27,52,44,42,46,41,39,97,90,77,0.00,40.00,19,16,35,0.04
2013-8-28,58,53,48,50,48,46,98,85,72,0.00,40.00,15,12,31,0.37
2013-8-29,51,49,47,49,47,45,97,94,93,0.00,40.00,21,15,47,0.55
2013-8-30,54,47,42,49,44,40,97,90,70,0.00,40.00,19,9,43,0.09
2013-8-31,66,54,45,47,39,-100,92,60,31,0.00,40.00,12,8,24,0.00
2013-9-1,67,56,50,51,46,43,87,70,54,0.00,40.00,17,10,35,0.00
2013-9-2,61,53,48,52,48,42,93,83,65,0.00,40.00,17,10,33,0.00
2013-9-3,55,49,43,49,45,40,98,86,73,0.00,40.00,15,8,30,0.24
2013-9-4,64,51,46,50,45,39,97,80,56,0.00,40.00,9,5,17,0.01
2013-9-5,59,51,48,51,47,43,95,85,75,0.00,40.00,12,6,23,0.08
2013-9-6,61,53,48,54,47,42,93,81,66,0.00,40.00,12,6,25,0.01
2013-9-7,61,51,46,53,42,-100,92,76,59,0.00,40.00,9,5,16,0.01
2013-9-8,70,55,47,52,42,31,85,66,36,0.00,40.00,10,6,21,0.00
2013-9-9,70,59,52,48,42,30,79,55,29,0.00,40.00,7,4,16,0.00
2013-9-10,74,66,52,44,35,-4,51,34,9,0.00,40.00,15,6,24,0.00
2013-9-11,80,68,61,46,42,38,54,40,24,0.00,40.00,17,8,28,0.00
2013-9-12,80,67,59,47,42,40,53,41,30,0.00,40.00,10,5,17,0.00
2013-9-13,76,64,56,51,43,37,70,50,27,0.00,40.00,10,5,20,0.00
2013-9-14,80,65,56,48,41,-100,63,43,29,0.00,40.00,13,7,21,0.00
2013-9-15,68,59,48,52,48,43,99,70,42,0.00,40.00,19,8,39,0.19
2013-9-16,51,45,39,48,44,38,98,96,91,0.00,40.00,17,8,28,0.11
2013-9-17,47,40,35,41,37,32,97,90,76,0.00,40.00,7,4,16,0.01
2013-9-18,41,38,35,40,36,34,98,96,95,0.00,40.00,9,6,19,0.00
2013-9-19,60,49,39,38,30,23,97,51,29,0.00,40.00,19,13,35,0.00
2013-9-20,55,48,40,44,39,31,98,74,50,0.00,40.00,21,14,38,0.32
2013-9-21,48,41,38,42,38,-100,98,93,74,0.00,40.00,12,6,21,0.12
2013-9-22,40,38,35,39,37,34,97,96,95,0.00,40.00,29,16,62,0.45
2013-9-23,38,35,32,37,34,31,97,96,94,0.00,40.00,17,10,30,0.42
2013-9-24,42,35,32,38,33,31,98,94,84,0.00,40.00,10,5,16,0.07
2013-9-25,42,35,32,38,33,30,97,91,74,0.00,40.00,10,5,17,0.10
2013-9-26,49,38,32,40,32,26,97,78,47,0.00,40.00,9,4,17,0.01
2013-9-27,41,37,32,40,35,27,99,91,65,0.00,40.00,23,13,41,0.05
2013-9-28,43,37,32,42,35,-100,99,96,83,0.00,40.00,38,19,74,1.67
2013-9-29,37,34,32,27,-83,-100,83,11,72,0.00,40.00,36,24,85,0.82
2013-9-30,34,33,32,-100,-100,-100,0,0,100,0.00,40.00,15,12,30,0.90